Wind_Speed
7 6 5 5 4 4 4 4 5 4 4 4 4 4 4 4 5 5 5 5 4 4 4 5 6 6 6 7 8 8 8 9 10 11 11 11 10 10 9 9 8 7 7
7 6 6 5 4 3 3 3 3 3 3 3 3 4 3 3 3 4 4 4 5 4 5 5 6 6 7 7 8 9 10 10 11 12 12 13 13 13 12 12 11 10 9
8 7 6 5 4 3 2 2 2 2 3 3 3 3 3 2 2 3 3 3 4 4 5 5 6 7 7 8 9 10 11 11 12 13 14 15 15 15 15 14 14 13 12
8 7 6 5 4 3 2 1 2 2 2 2 3 3 3 3 2 3 3 3 4 5 5 5 6 6 7 8 9 9 10 11 12 13 14 16 17 17 17 17 16 16 15
8 7 7 6 4 3 2 1 0 0 1 1 2 2 3 2 2 3 3 4 4 5 5 6 6 7 8 8 9 10 10 11 13 14 14 15 17 19 19 19 18 18 17
9 8 8 7 5 4 2 2 1 1 1 2 2 2 2 2 3 3 3 3 4 4 5 6 6 7 8 9 9 10 11 11 12 13 14 15 16 19 20 21 21 20 19
10 9 8 7 6 5 4 3 2 1 1 2 2 2 3 3 3 4 4 4 4 4 5 6 6 7 8 9 10 10 11 11 12 13 14 14 15 17 19 22 23 23 22
11 10 8 8 7 6 5 3 3 2 2 2 2 3 3 3 4 4 4 4 4 5 5 6 6 7 8 9 10 10 11 11 12 13 14 15 15 17 19 20 22 24 25
11 10 9 8 7 6 5 4 3 2 2 2 2 3 3 4 4 4 4 5 5 5 6 6 7 7 8 9 10 11 12 12 13 14 15 15 15 16 18 20 21 23 24
12 11 10 9 8 6 5 4 3 3 2 1 1 2 3 3 4 5 5 5 5 6 6 7 7 8 9 9 10 11 12 12 13 14 16 17 17 18 18 19 21 22 24
13 11 11 10 8 7 6 5 4 3 1 0 1 2 3 4 4 5 5 6 7 7 8 8 8 9 10 10 10 11 12 12 13 14 16 17 18 19 20 20 21 22 23
13 12 11 10 9 8 7 6 4 4 3 2 2 3 4 5 5 6 6 7 8 9 9 10 10 11 11 12 12 12 13 13 14 15 16 17 18 20 21 22 23 23 23
13 13 11 10 10 9 8 7 6 6 5 5 5 5 6 7 7 8 8 9 9 10 10 11 12 12 13 14 14 14 15 15 15 16 16 17 18 20 21 23 24 25 26
14 13 12 11 10 10 9 8 8 8 8 8 8 8 8 9 9 10 10 11 11 11 12 13 13 14 14 15 15 16 16 17 17 17 18 18 19 20 21 23 24 26 27
15 14 13 12 12 11 11 11 11 10 10 10 11 11 11 11 12 12 13 13 14 14 14 15 15 16 16 17 17 18 18 19 19 19 19 20 20 21 22 23 25 26 28
15 15 14 14 14 13 13 13 13 13 13 13 13 14 14 14 15 15 15 16 16 17 17 17 17 18 19 19 19 20 20 20 21 21 21 21 22 22 23 24 25 26 28
15 16 16 16 16 16 16 16 16 16 16 16 16 16 17 17 18 18 18 19 19 19 19 20 20 20 21 22 22 22 22 23 23 23 23 24 24 24 25 25 26 27 28
17 18 18 18 19 19 19 19 19 19 19 19 20 20 20 21 21 21 21 22 22 22 22 23 23 23 23 24 24 25 25 25 25 26 26 26 26 26 26 27 27 28 28
19 19 19 20 21 21 21 22 22 22 22 22 23 23 23 24 24 24 24 24 25 25 25 26 26 26 27 27 27 27 27 28 28 28 28 28 28 28 29 29 29 29 30
19 19 20 21 22 23 24 24 24 25 25 25 26 26 26 27 27 27 28 28 28 28 28 29 29 29 29 30 30 30 30 30 30 30 31 31 31 31 31 32 32 32 32
21 22 22 23 24 25 26 26 26 27 28 28 28 29 29 30 30 30 31 31 31 32 32 32 32 32 32 32 33 33 32 32 33 33 33 33 33 33 34 34 34 35 35
23 24 24 25 26 27 28 29 29 29 30 30 30 30 31 32 33 33 34 34 34 35 35 35 35 35 35 35 35 36 36 35 35 36 36 36 36 36 36 36 36 36 37
25 25 27 28 29 29 30 31 32 32 32 32 33 34 34 34 35 35 36 35 35 36 37 38 38 38 38 38 38 38 39 39 38 39 39 38 39 39 39 39 39 39 39
27 28 29 31 32 33 34 34 35 35 36 36 36 36 36 37 38 39 39 38 39 40 41 41 41 41 41 41 42 42 42 42 42 42 43 42 41 42 42 41 41 41 41
28 30 31 32 33 35 36 35 37 37 38 39 39 39 39 39 40 41 41 41 41 42 43 43 43 44 44 44 45 46 45 46 45 45 46 46 45 45 44 44 44 44 43
31 31 32 33 33 33 35 35 36 37 37 38 39 40 40 41 42 43 43 44 44 45 45 45 46 46 47 47 48 49 49 49 49 48 48 49 48 48 46 46 46 46 46
Wind_Direction
250 252 258 268 279 285 293 304 311 304 314 311 305 305 302 287 280 266 265 268 260 261 264 256 253 253 253 254 254 253 250 251 248 244 241 238 237 236 235 232 232 233 234
239 242 247 260 268 264 280 306 310 304 305 300 298 309 306 293 287 286 287 270 259 263 271 268 260 258 261 262 263 259 256 258 255 249 245 243 240 240 238 236 236 236 237
227 229 234 239 241 244 266 296 305 304 304 299 303 316 318 302 287 304 303 282 274 270 273 274 266 263 263 265 266 265 261 260 259 256 251 247 245 242 239 238 237 238 239
220 221 219 223 230 239 259 288 297 305 310 307 315 327 326 310 295 304 309 295 288 284 280 279 277 271 268 267 269 268 266 264 261 258 256 250 246 243 240 239 239 239 240
212 209 207 210 209 211 223 229 304 4 337 338 342 343 337 328 314 315 321 315 303 299 293 286 282 280 276 273 272 272 271 266 262 260 258 256 249 245 243 242 240 240 241
202 199 200 200 200 198 183 168 144 97 34 20 13 7 359 352 348 342 330 322 321 320 312 303 293 287 283 280 277 276 275 271 267 265 261 259 254 248 244 244 243 243 243
197 196 196 193 194 190 180 175 157 136 74 42 31 23 14 6 0 358 350 339 330 326 325 321 312 302 293 289 284 280 277 275 272 269 266 264 259 252 248 246 245 245 245
193 194 192 188 188 187 182 169 150 135 106 71 51 33 22 18 18 10 359 348 341 337 334 327 320 312 303 296 291 287 282 277 274 271 268 266 264 258 253 252 249 248 246
191 192 193 189 184 180 175 166 154 146 131 92 56 38 29 23 16 9 1 355 349 343 334 325 321 318 312 305 299 292 286 282 277 274 270 267 266 264 259 255 251 250 249
189 191 191 191 190 186 182 175 167 158 146 106 44 24 17 12 8 5 358 351 347 342 335 329 325 319 314 309 305 300 294 288 282 278 274 269 266 265 263 260 255 253 252
191 193 191 191 192 194 194 189 182 186 193 204 351 352 355 354 351 348 345 342 339 336 334 331 327 322 318 315 309 304 300 296 290 284 278 273 268 265 264 262 260 257 256
192 194 193 194 199 203 205 208 215 227 239 258 282 303 317 326 330 331 329 329 328 326 325 324 322 318 316 314 311 307 302 298 295 291 285 278 272 269 266 264 262 261 259
198 203 202 203 208 211 216 224 234 242 255 266 276 288 298 306 313 315 315 317 319 319 318 318 318 316 313 310 308 305 302 298 296 294 290 284 278 273 268 266 264 262 260
206 207 209 211 215 221 229 237 244 251 261 270 279 286 290 296 303 305 306 308 310 310 310 310 310 310 309 308 307 305 303 299 296 294 291 287 283 279 273 269 266 263 261
210 211 215 219 224 231 238 244 250 257 264 272 279 285 288 293 297 300 301 302 303 304 304 304 304 304 304 305 305 304 302 299 297 294 292 288 284 281 277 274 270 266 263
216 218 221 226 233 241 247 250 254 260 267 273 278 282 287 291 294 295 296 298 299 299 299 300 299 300 300 301 301 300 300 297 296 295 293 290 286 282 278 276 273 270 267
224 225 228 234 241 247 251 254 258 263 268 272 276 281 285 288 290 292 293 294 295 295 295 296 296 296 297 297 297 297 298 296 294 293 292 291 288 284 280 278 275 273 269
232 234 238 243 247 251 254 258 263 267 271 274 277 281 284 285 286 288 290 291 291 291 291 293 293 293 293 293 293 293 293 293 293 292 291 290 288 285 282 280 277 275 272
239 242 244 248 251 254 258 262 266 269 273 275 278 280 282 284 285 286 288 288 289 289 289 289 290 290 291 290 290 290 290 291 290 290 289 288 287 285 283 281 279 277 274
245 247 250 252 255 258 261 265 268 271 273 275 278 280 281 282 283 285 287 287 287 287 287 287 287 287 288 288 288 288 288 288 288 287 287 286 285 284 283 281 280 278 276
250 251 253 256 259 262 264 266 269 270 272 274 277 279 280 281 282 284 285 285 285 285 285 285 285 285 286 285 285 285 285 285 286 285 285 284 283 282 281 281 280 278 276
255 256 257 260 263 266 268 268 270 271 272 274 275 277 278 280 281 282 283 285 285 284 284 284 283 284 283 283 283 283 282 283 283 283 283 283 283 282 281 280 279 277 276
262 263 264 265 267 269 269 270 272 274 275 275 276 277 279 280 280 281 282 283 283 282 282 283 282 282 282 282 282 281 281 281 282 281 281 281 281 281 280 279 278 277 276
265 267 269 270 268 269 269 269 271 273 274 275 277 278 279 279 280 280 280 281 281 281 281 281 281 281 281 281 281 280 280 280 280 280 280 280 279 279 279 278 278 276 275
269 271 272 273 272 273 273 272 272 273 275 276 277 278 279 279 280 280 280 281 280 281 280 280 280 280 279 280 280 280 280 279 279 279 280 280 279 278 278 277 276 275 274
272 272 275 275 275 276 276 275 275 276 277 279 278 279 280 281 280 279 280 280 280 280 279 279 280 280 280 280 280 279 279 279 279 278 278 278 278 277 276 276 275 274 273
Height
5892 5892 5892 5892 5892 5891 5891 5890 5889 5889 5888 5887 5887 5887 5887 5886 5886 5886 5887 5887 5887 5887 5888 5888 5889 5889 5890 5890 5891 5891 5892 5892 5893 5894 5895 5896 5897 5898 5899 5899 5900 5901 5901
5891 5891 5891 5892 5891 5891 5890 5889 5889 5888 5887 5887 5887 5886 5886 5886 5885 5886 5885 5886 5886 5886 5886 5887 5887 5887 5888 5888 5889 5889 5890 5890 5890 5891 5892 5893 5894 5895 5896 5898 5898 5899 5900
5889 5890 5890 5891 5890 5890 5889 5889 5888 5888 5887 5887 5886 5886 5885 5885 5885 5885 5884 5884 5884 5885 5885 5885 5885 5886 5886 5886 5887 5887 5887 5887 5888 5888 5889 5890 5891 5892 5894 5895 5896 5897 5898
5887 5888 5889 5889 5890 5889 5889 5888 5888 5887 5887 5886 5886 5885 5885 5884 5884 5884 5884 5883 5883 5883 5883 5884 5884 5884 5884 5884 5884 5884 5884 5884 5885 5885 5886 5887 5888 5889 5890 5892 5893 5894 5895
5885 5886 5887 5888 5888 5888 5888 5888 5887 5887 5887 5886 5885 5885 5884 5884 5883 5883 5883 5883 5882 5882 5882 5882 5882 5882 5882 5882 5882 5882 5882 5882 5882 5882 5882 5883 5884 5885 5887 5888 5889 5891 5892
5884 5885 5886 5887 5887 5888 5888 5887 5887 5887 5887 5886 5886 5885 5884 5884 5883 5883 5882 5882 5882 5881 5881 5880 5880 5880 5880 5880 5879 5879 5879 5879 5879 5879 5879 5879 5880 5881 5882 5884 5885 5887 5888
5882 5883 5884 5885 5886 5887 5887 5887 5887 5887 5886 5886 5885 5885 5885 5884 5883 5882 5882 5881 5881 5880 5879 5879 5878 5878 5878 5877 5877 5877 5876 5876 5876 5875 5876 5876 5876 5877 5878 5879 5881 5882 5884
5880 5881 5883 5884 5885 5885 5886 5886 5886 5886 5886 5886 5885 5885 5884 5884 5883 5882 5881 5881 5880 5879 5878 5878 5877 5876 5875 5875 5874 5874 5873 5873 5872 5872 5872 5872 5872 5873 5873 5874 5875 5877 5879
5878 5880 5882 5883 5884 5884 5885 5885 5885 5885 5885 5885 5885 5885 5884 5883 5882 5881 5880 5880 5879 5878 5877 5876 5875 5874 5873 5872 5872 5871 5870 5870 5869 5869 5869 5869 5869 5869 5869 5870 5870 5872 5873
5876 5878 5880 5881 5882 5883 5884 5884 5884 5884 5884 5884 5884 5884 5883 5882 5881 5880 5880 5879 5878 5877 5876 5875 5874 5872 5871 5870 5869 5868 5867 5867 5866 5865 5865 5864 5864 5865 5865 5865 5866 5866 5867
5875 5876 5878 5879 5880 5881 5882 5883 5883 5883 5883 5883 5882 5882 5882 5881 5880 5879 5878 5877 5876 5875 5874 5873 5871 5870 5869 5868 5866 5865 5864 5863 5862 5861 5861 5860 5860 5860 5860 5860 5861 5861 5862
5873 5874 5876 5877 5878 5880 5880 5881 5881 5881 5881 5881 5881 5880 5880 5879 5878 5877 5876 5875 5874 5873 5871 5870 5869 5867 5866 5864 5863 5862 5861 5860 5858 5857 5856 5856 5855 5855 5855 5855 5855 5855 5856
5870 5872 5874 5875 5876 5877 5878 5878 5878 5879 5879 5879 5878 5878 5877 5877 5876 5875 5874 5872 5871 5870 5869 5867 5866 5864 5863 5861 5860 5858 5857 5856 5854 5853 5852 5851 5850 5849 5849 5849 5849 5849 5849
5867 5869 5870 5872 5873 5874 5875 5875 5876 5876 5876 5876 5875 5875 5874 5873 5872 5871 5870 5869 5868 5867 5866 5864 5863 5861 5859 5857 5856 5854 5852 5851 5850 5848 5847 5846 5845 5844 5843 5843 5842 5842 5843
5864 5865 5867 5868 5870 5871 5871 5872 5872 5872 5872 5872 5872 5871 5870 5870 5868 5867 5866 5865 5865 5863 5862 5860 5859 5857 5855 5853 5851 5849 5848 5846 5844 5843 5841 5840 5839 5838 5837 5836 5836 5835 5835
5860 5862 5863 5865 5866 5867 5867 5868 5868 5868 5868 5868 5867 5867 5866 5865 5864 5862 5861 5860 5859 5858 5857 5855 5854 5852 5850 5848 5846 5845 5843 5841 5839 5837 5836 5834 5833 5831 5830 5829 5828 5828 5827
5857 5858 5860 5861 5862 5863 5863 5863 5863 5863 5863 5863 5862 5861 5861 5859 5858 5857 5856 5854 5853 5852 5851 5849 5848 5846 5844 5842 5840 5838 5837 5835 5833 5831 5829 5827 5826 5825 5823 5822 5821 5820 5819
5854 5855 5856 5857 5857 5858 5858 5858 5858 5858 5857 5857 5857 5856 5855 5854 5852 5851 5850 5848 5847 5846 5844 5843 5841 5839 5838 5836 5834 5832 5830 5828 5826 5824 5822 5820 5818 5817 5816 5814 5813 5812 5811
5849 5850 5851 5852 5852 5852 5852 5852 5852 5852 5852 5851 5850 5849 5848 5847 5846 5844 5843 5841 5840 5838 5837 5835 5834 5832 5830 5828 5826 5824 5822 5820 5818 5816 5814 5812 5810 5808 5807 5806 5804 5803 5802
5844 5844 5845 5845 5846 5846 5846 5845 5845 5845 5845 5844 5843 5842 5841 5840 5838 5837 5835 5833 5832 5830 5828 5827 5825 5823 5821 5819 5817 5816 5814 5812 5809 5807 5805 5803 5801 5799 5797 5796 5795 5794 5792
5838 5839 5839 5839 5839 5839 5839 5838 5838 5837 5837 5836 5835 5834 5833 5831 5830 5828 5827 5825 5823 5821 5819 5817 5816 5814 5812 5810 5808 5806 5804 5802 5800 5798 5796 5794 5792 5790 5788 5786 5784 5783 5782
5832 5831 5832 5831 5831 5831 5831 5830 5830 5829 5828 5827 5826 5825 5823 5822 5821 5819 5817 5816 5814 5812 5810 5808 5806 5804 5802 5799 5797 5795 5793 5792 5790 5788 5785 5784 5782 5780 5777 5775 5774 5772 5771
5824 5824 5824 5824 5823 5823 5822 5821 5821 5820 5819 5818 5817 5815 5814 5812 5810 5808 5807 5805 5803 5801 5799 5797 5795 5793 5790 5788 5786 5784 5782 5780 5778 5776 5774 5773 5770 5768 5766 5764 5762 5761 5759
5816 5816 5816 5815 5814 5813 5813 5812 5811 5810 5809 5808 5807 5805 5803 5802 5800 5798 5796 5794 5792 5789 5786 5784 5783 5781 5778 5776 5773 5771 5769 5767 5766 5763 5760 5760 5758 5756 5754 5752 5750 5749 5747
5807 5806 5805 5805 5804 5804 5803 5802 5801 5799 5798 5797 5795 5793 5792 5790 5788 5786 5784 5782 5780 5777 5774 5771 5770 5768 5765 5762 5760 5757 5755 5753 5752 5750 5746 5744 5744 5742 5740 5739 5736 5735 5734
5798 5797 5796 5795 5794 5793 5792 5791 5790 5788 5787 5785 5783 5782 5779 5777 5775 5772 5770 5768 5766 5764 5761 5758 5756 5754 5751 5748 5745 5742 5740 5737 5735 5735 5732 5729 5728 5726 5726 5725 5722 5720 5719